N4XWC Weather Reports


time (UTC)temp
F
wind
direction
speed
knots
gust
knots
rain 1hr
in
rain 24hr
in
rain mn
in
humidity
%
barometer
mb
20260903060222 81 80 0.0 0.0 0.00 0.00 0.00 84 1015.2
20260903060155 81 80 0.0 0.0 0.00 0.00 0.00 84 1015.2
20260903055723 81 80 0.0 0.0 0.00 0.00 0.00 84 1015.3
20260903055223 81 80 0.0 0.0 0.00 0.00 0.00 83 1015.3
20260903055156 81 80 0.0 0.0 0.00 0.00 0.00 83 1015.3
20260903054723 81 80 0.0 0.0 0.00 0.00 0.00 83 1015.3
20260903054223 81 80 0.0 0.0 0.00 0.00 0.00 82 1015.4
20260903054156 81 80 0.0 0.0 0.00 0.00 0.00 82 1015.4
20260903053723 81 80 0.0 0.0 0.00 0.00 0.00 81 1015.4
20260903053222 81 80 0.0 0.0 0.00 0.00 0.00 80 1015.4
20260903053157 81 80 0.0 0.0 0.00 0.00 0.00 80 1015.4
20260903052723 81 80 0.0 0.0 0.00 0.00 0.00 79 1015.4
20260903052223 81 80 0.0 0.0 0.00 0.00 0.00 78 1015.4
20260903052156 81 80 0.0 0.0 0.00 0.00 0.00 78 1015.4
20260903051722 81 80 0.0 0.0 0.00 0.00 0.00 76 1015.4
20260903051223 81 80 0.0 0.9 0.00 0.00 0.00 76 1015.4
20260903051156 81 82 0.9 0.9 0.00 0.00 0.00 76 1015.4
20260903050723 81 80 0.0 0.9 0.00 0.00 0.00 73 1015.4
20260903050222 81 80 0.0 0.9 0.00 0.00 0.00 73 1015.4
20260903050157 81 80 0.9 0.9 0.00 0.00 0.00 73 1015.4
20260903045723 81 72 0.0 0.9 0.00 0.00 0.00 73 1015.5
20260903045223 81 65 0.9 1.7 0.00 0.00 0.00 72 1015.5
20260903045156 81 58 0.9 1.7 0.00 0.00 0.00 72 1015.5
20260903044722 81 68 1.7 1.7 0.00 0.00 0.00 73 1015.5
20260903044223 81 64 0.9 0.9 0.00 0.00 0.00 73 1015.4
20260903044155 81 64 0.9 1.7 0.00 0.00 0.00 73 1015.4
20260903043723 81 68 0.9 1.7 0.00 0.00 0.00 73 1015.4
20260903043222 82 68 1.7 1.7 0.00 0.00 0.00 72 1015.4
20260903043157 82 68 0.9 1.7 0.00 0.00 0.00 72 1015.4
20260903042723 82 85 0.9 1.7 0.00 0.00 0.00 72 1015.4
20260903042223 82 104 1.7 1.7 0.00 0.00 0.00 72 1015.4
20260903042156 82 106 0.0 1.7 0.00 0.00 0.00 72 1015.4
20260903041723 82 106 0.9 1.7 0.00 0.00 0.00 71 1015.4
20260903041224 82 106 1.7 1.7 0.00 0.00 0.00 71 1015.4
20260903041157 82 106 1.7 1.7 0.00 0.00 0.00 70 1015.4
20260903040722 83 106 0.0 0.9 0.00 0.00 0.00 70 1015.4
20260903040223 83 106 0.0 0.0 0.00 0.00 0.00 70 1015.4
20260903040156 83 106 0.0 0.9 0.00 0.00 0.00 70 1015.4
20260903035724 83 106 0.0 0.9 0.00 0.00 0.00 69 1015.4
20260903035222 83 106 0.9 0.9 0.00 0.00 0.00 69 1015.4
20260903035157 83 106 0.0 0.0 0.00 0.00 0.00 69 1015.4
20260903034723 84 106 0.0 0.0 0.00 0.00 0.00 68 1015.4
20260903034224 84 106 0.0 0.0 0.00 0.00 0.00 68 1015.5
20260903034157 84 106 0.0 0.0 0.00 0.00 0.00 68 1015.5
20260903033722 84 106 0.0 0.0 0.00 0.00 0.00 67 1015.5
20260903033223 84 106 0.0 0.0 0.00 0.00 0.00 67 1015.5
20260903033156 84 106 0.0 0.0 0.00 0.00 0.00 67 1015.5
20260903032724 84 106 0.0 0.0 0.00 0.00 0.00 67 1015.6
20260903032222 84 106 0.0 0.9 0.00 0.00 0.00 67 1015.6
20260903032157 84 106 0.0 1.7 0.00 0.00 0.00 67 1015.6
20260903031723 84 106 0.9 0.9 0.00 0.00 0.00 66 1015.6
20260903031224 84 106 0.9 1.7 0.00 0.00 0.00 66 1015.6
20260903031156 84 106 0.9 0.9 0.00 0.00 0.00 66 1015.6
20260903030722 84 100 0.9 1.7 0.00 0.00 0.00 65 1015.6
20260903030223 84 73 0.9 1.7 0.00 0.00 0.00 65 1015.6
20260903030156 84 73 0.9 1.7 0.00 0.00 0.00 65 1015.6
20260903025724 84 68 1.7 1.7 0.00 0.00 0.00 65 1015.6
20260903025222 84 65 0.9 0.9 0.00 0.00 0.00 65 1015.6
20260903025157 84 65 0.0 1.7 0.00 0.00 0.00 65 1015.6
20260903024723 84 65 0.9 0.9 0.00 0.00 0.00 64 1015.6
20260903024224 84 65 0.9 1.7 0.00 0.00 0.00 64 1015.6
20260903024156 84 71 0.9 1.7 0.00 0.00 0.00 64 1015.6
20260903023722 84 54 0.0 1.7 0.00 0.00 0.00 64 1015.6
20260903023223 84 55 0.9 1.7 0.00 0.00 0.00 64 1015.6
20260903023156 84 32 0.0 0.9 0.00 0.00 0.00 64 1015.6
20260903022723 84 23 0.9 1.7 0.00 0.00 0.00 63 1015.6
20260903022224 84 68 0.0 0.9 0.00 0.00 0.00 63 1015.6
20260903022157 84 34 0.0 1.7 0.00 0.00 0.00 63 1015.6
20260903021723 84 11 0.0 1.7 0.00 0.00 0.00 63 1015.6
20260903021223 84 47 1.7 2.6 0.00 0.00 0.00 62 1015.6
20260903021156 84 55 0.9 1.7 0.00 0.00 0.00 62 1015.6
20260903020723 84 65 0.0 2.6 0.00 0.00 0.00 63 1015.6
20260903020224 84 64 0.0 0.0 0.00 0.00 0.00 65 1015.6
20260903020156 84 64 0.0 0.9 0.00 0.00 0.00 65 1015.6
20260903015722 84 56 0.0 0.9 0.00 0.00 0.00 65 1015.5
20260903015224 84 27 0.0 0.9 0.00 0.00 0.00 66 1015.5
20260903015157 84 27 0.9 0.9 0.00 0.00 0.00 66 1015.5
20260903014723 84 24 0.0 0.9 0.00 0.00 0.00 67 1015.5
20260903014223 84 56 0.0 1.7 0.00 0.00 0.00 67 1015.2
20260903014156 84 56 0.9 1.7 0.00 0.00 0.00 67 1015.2
20260903013724 84 75 0.9 1.7 0.00 0.00 0.00 68 1015.2
20260903013222 84 51 0.9 0.9 0.00 0.00 0.00 68 1015.2
20260903013155 84 79 0.0 0.9 0.00 0.00 0.00 68 1015.2
20260903012723 84 45 0.0 0.0 0.00 0.00 0.00 69 1015.1
20260903012223 84 59 0.0 0.0 0.00 0.00 0.00 69 1015.1
20260903012156 84 59 0.0 0.9 0.00 0.00 0.00 70 1015.1
20260903011722 84 59 0.9 0.9 0.00 0.00 0.00 70 1015.1
20260903011223 84 89 1.7 1.7 0.00 0.00 0.00 71 1015.2
20260903011156 84 68 0.9 1.7 0.00 0.00 0.00 71 1015.2
20260903010723 84 28 0.9 0.9 0.00 0.00 0.00 72 1015.2
20260903010222 84 8 0.9 0.9 0.00 0.00 0.00 72 1015.2
20260903010157 85 8 1.7 1.7 0.00 0.00 0.00 72 1015.2
20260903005723 85 17 0.9 1.7 0.00 0.00 0.00 72 1015.2
20260903005223 85 18 0.9 1.7 0.00 0.00 0.00 72 1015.2
20260903005156 85 18 1.7 1.7 0.00 0.00 0.00 72 1015.2
20260903004725 85 35 0.9 1.7 0.00 0.00 0.00 72 1015.2
20260903004223 85 47 1.7 1.7 0.00 0.00 0.00 72 1015.2
20260903004155 85 34 0.9 1.7 0.00 0.00 0.00 72 1015.2
20260903003722 85 38 0.0 0.0 0.00 0.00 0.00 72 1015.2
20260903003245 85 68 0.0 1.7 0.00 0.00 0.00 71 1015.2
20260903003223 85 68 0.0 0.0 0.00 0.00 0.00 71 1015.2
20260903003156 85 68 0.0 1.7 0.00 0.00 0.00 71 1015.2
20260903002723 85 78 0.0 2.6 0.00 0.00 0.00 71 1015.2
20260903002224 86 11 0.0 0.0 0.00 0.00 0.00 71 1015.2
20260903002155 86 10 0.0 0.0 0.00 0.00 0.00 71 1015.2
20260903001722 86 13 0.0 0.0 0.00 0.00 0.00 71 1015.2
20260903001223 86 10 0.9 0.9 0.00 0.00 0.00 70 1015.2
20260903001157 86 10 0.0 0.9 0.00 0.00 0.00 70 1015.2
20260903000723 86 4 0.9 1.7 0.00 0.00 0.00 70 1015.2
20260903000222 86 6 0.0 1.7 0.00 0.00 0.00 70 1015.2
20260903000156 86 6 1.7 1.7 0.00 0.00 0.00 70 1015.2
20260902235723 87 0 0.0 0.0 0.00 0.00 0.00 70 1015.0
20260902235223 87 354 1.7 1.7 0.00 0.00 0.00 70 1015.0
20260902235156 87 6 0.9 2.6 0.00 0.00 0.00 70 1015.0
20260902234722 87 13 0.9 2.6 0.00 0.00 0.00 70 1015.0
20260902234223 87 42 0.9 0.9 0.00 0.00 0.00 69 1014.9
20260902234157 88 42 0.0 2.6 0.00 0.00 0.00 69 1014.9
20260902233723 88 55 0.9 1.7 0.00 0.00 0.00 69 1014.9
20260902233224 88 61 0.0 0.9 0.00 0.00 0.00 69 1014.9
20260902233157 88 49 0.0 1.7 0.00 0.00 0.00 69 1014.9
20260902232722 88 76 0.0 0.0 0.00 0.00 0.00 68 1015.1
20260902232223 88 65 1.7 1.7 0.00 0.00 0.00 68 1015.1
20260902232156 89 83 0.9 0.9 0.00 0.00 0.00 67 1015.1
20260902231724 89 90 1.7 1.7 0.00 0.00 0.00 67 1015.1
20260902231222 89 75 0.9 1.7 0.00 0.00 0.00 67 1015.0
20260902231155 89 76 1.7 1.7 0.00 0.00 0.00 67 1015.0
20260902230723 89 64 0.9 1.7 0.00 0.00 0.00 67 1015.0
20260902230224 89 64 0.0 0.9 0.00 0.00 0.00 67 1015.0
20260902230156 90 64 0.9 0.9 0.00 0.00 0.00 67 1015.0
20260902225722 90 64 0.0 0.0 0.00 0.00 0.00 66 1015.2
20260902225223 90 82 0.9 0.9 0.00 0.00 0.00 65 1015.2
20260902225156 90 92 0.9 0.9 0.00 0.00 0.00 63 1015.2
20260902224724 90 127 0.0 1.7 0.00 0.00 0.00 64 1015.2
20260902224222 90 83 0.9 0.9 0.00 0.00 0.00 64 1015.1
20260902224155 90 83 0.9 1.7 0.00 0.00 0.00 64 1015.1
20260902223723 90 107 0.9 0.9 0.00 0.00 0.00 64 1015.1
20260902223223 90 126 0.9 0.9 0.00 0.00 0.00 63 1015.1
20260902223156 90 117 0.9 1.7 0.00 0.00 0.00 63 1015.1
20260902222723 90 110 0.9 1.7 0.00 0.00 0.00 63 1015.2
20260902222223 90 120 0.9 1.7 0.00 0.00 0.00 61 1015.2
20260902222156 90 95 0.9 2.6 0.00 0.00 0.00 62 1015.2
20260902221722 90 82 0.0 2.6 0.00 0.00 0.00 62 1015.2
20260902221223 91 102 2.6 3.5 0.00 0.00 0.00 62 1015.2
20260902221156 91 109 3.5 4.3 0.00 0.00 0.00 62 1015.2
20260902220723 91 93 2.6 2.6 0.00 0.00 0.00 62 1015.2
20260902220222 91 107 1.7 2.6 0.00 0.00 0.00 61 1015.2
20260902220157 91 107 1.7 2.6 0.00 0.00 0.00 61 1015.2
20260902215723 91 44 1.7 4.3 0.00 0.00 0.00 61 1015.2
20260902215223 91 89 2.6 2.6 0.00 0.00 0.00 61 1015.2
20260902215156 91 41 0.0 3.5 0.00 0.00 0.00 61 1015.2
20260902214722 91 51 2.6 2.6 0.00 0.00 0.00 59 1015.2
20260902214222 91 75 4.3 4.3 0.00 0.00 0.00 60 1015.2
20260902214157 92 55 0.0 2.6 0.00 0.00 0.00 60 1015.2
20260902213722 92 69 0.9 3.5 0.00 0.00 0.00 58 1015.2
20260902213223 92 107 2.6 3.5 0.00 0.00 0.00 58 1015.2
20260902213156 92 119 0.9 1.7 0.00 0.00 0.00 58 1015.2
20260902212724 92 85 0.9 2.6 0.00 0.00 0.00 57 1015.3
20260902212222 92 40 2.6 4.3 0.00 0.00 0.00 58 1015.3
20260902212158 92 49 1.7 3.5 0.00 0.00 0.00 58 1015.3
20260902211723 92 164 1.7 3.5 0.00 0.00 0.00 60 1015.3
20260902211223 92 157 0.9 2.6 0.00 0.00 0.00 57 1015.4
20260902211155 92 185 2.6 2.6 0.00 0.00 0.00 57 1015.4
20260902210722 93 40 1.7 4.3 0.00 0.00 0.00 56 1015.4
20260902210223 93 83 0.9 1.7 0.00 0.00 0.00 60 1015.4
20260902210155 93 90 0.0 0.9 0.00 0.00 0.00 60 1015.4
20260902205723 93 75 0.9 1.7 0.00 0.00 0.00 58 1015.2
20260902205222 93 30 2.6 2.6 0.00 0.00 0.00 58 1015.2
20260902205157 93 8 1.7 2.6 0.00 0.00 0.00 58 1015.2
20260902204723 93 169 0.9 1.7 0.00 0.00 0.00 57 1015.2
20260902204223 94 52 0.9 0.9 0.00 0.00 0.00 56 1015.6
20260902204156 94 52 0.9 1.7 0.00 0.00 0.00 56 1015.6
20260902203724 94 71 0.9 0.9 0.00 0.00 0.00 54 1015.6
20260902203223 93 58 1.7 2.6 0.00 0.00 0.00 52 1015.6
20260902203155 93 103 2.6 2.6 0.00 0.00 0.00 52 1015.6
20260902202723 93 144 0.9 3.5 0.00 0.00 0.00 54 1015.6
20260902202224 93 45 2.6 2.6 0.00 0.00 0.00 59 1015.6
20260902202157 94 171 0.0 4.3 0.00 0.00 0.00 56 1015.6
20260902201722 94 157 0.0 0.9 0.00 0.00 0.00 55 1015.6
20260902201223 94 151 0.9 2.6 0.00 0.00 0.00 58 1015.9
20260902201156 94 127 2.6 4.3 0.00 0.00 0.00 58 1015.9
20260902200724 94 120 2.6 2.6 0.00 0.00 0.00 56 1015.9
20260902200240 94 82 2.6 2.6 0.00 0.00 0.00 54 1015.9
20260902200222 94 141 1.7 2.6 0.00 0.00 0.00 55 1015.9
20260902200157 94 82 2.6 2.6 0.00 0.00 0.00 54 1015.9
20260902195723 94 133 2.6 2.6 0.00 0.00 0.00 54 1016.1
20260902195224 94 126 1.7 2.6 0.00 0.00 0.00 52 1016.1
20260902195157 94 48 0.9 0.9 0.00 0.00 0.00 52 1016.1
20260902194722 94 104 2.6 3.5 0.00 0.00 0.00 52 1016.1
20260902194223 94 161 1.7 2.6 0.00 0.00 0.00 53 1016.5
20260902194156 94 42 2.6 4.3 0.00 0.00 0.00 53 1016.5
20260902193724 94 52 0.9 2.6 0.00 0.00 0.00 53 1016.5
20260902193223 93 45 0.9 4.3 0.00 0.00 0.00 53 1016.5
20260902193156 93 59 2.6 2.6 0.00 0.00 0.00 53 1016.5
20260902192722 93 104 1.7 1.7 0.00 0.00 0.00 59 1016.7
20260902192223 93 73 1.7 4.3 0.00 0.00 0.00 56 1016.7
20260902192155 93 109 2.6 4.3 0.00 0.00 0.00 56 1016.7
20260902191723 93 99 2.6 2.6 0.00 0.00 0.00 56 1016.7
20260902191222 93 0 0.0 2.6 0.00 0.00 0.00 58 1016.7
20260902191157 93 59 2.6 2.6 0.00 0.00 0.00 58 1016.7
20260902190722 92 148 0.9 0.9 0.00 0.00 0.00 59 1016.7
20260902190223 92 61 0.0 1.7 0.00 0.00 0.00 60 1016.7
20260902190156 92 41 1.7 1.7 0.00 0.00 0.00 58 1016.7
20260902185723 92 178 0.0 0.9 0.00 0.00 0.00 61 1017.0
20260902185223 92 78 1.7 1.7 0.00 0.00 0.00 58 1017.0
20260902185158 92 13 0.0 1.7 0.00 0.00 0.00 59 1017.0
20260902184722 92 30 0.0 0.9 0.00 0.00 0.00 62 1017.0
20260902184223 92 80 0.9 2.6 0.00 0.00 0.00 59 1017.1
20260902184156 92 189 2.6 2.6 0.00 0.00 0.00 59 1017.1
20260902183723 92 234 0.0 1.7 0.00 0.00 0.00 58 1017.1
20260902183222 92 216 0.0 3.5 0.00 0.00 0.00 57 1017.1
20260902183157 92 124 0.0 0.9 0.00 0.00 0.00 57 1017.1
20260902182723 92 93 3.5 5.2 0.00 0.00 0.00 58 1017.2
20260902182223 92 82 2.6 4.3 0.00 0.00 0.00 57 1017.2
20260902182156 92 90 3.5 4.3 0.00 0.00 0.00 57 1017.2
20260902181722 92 75 1.7 3.5 0.00 0.00 0.00 58 1017.2
20260902181223 92 65 2.6 2.6 0.00 0.00 0.00 56 1017.3
20260902181156 92 78 0.9 1.7 0.00 0.00 0.00 56 1017.3
20260902180723 92 99 0.9 1.7 0.00 0.00 0.00 55 1017.3
20260902180222 92 158 1.7 3.5 0.00 0.00 0.00 55 1017.3
20260902180157 92 66 1.7 4.3 0.00 0.00 0.00 55 1017.3
20260902175723 92 51 1.7 2.6 0.00 0.00 0.00 57 1017.6
20260902175223 92 4 2.6 3.5 0.00 0.00 0.00 58 1017.6
20260902175159 92 10 2.6 2.6 0.00 0.00 0.00 58 1017.6
20260902174722 92 13 1.7 3.5 0.00 0.00 0.00 57 1017.6
20260902174223 92 147 1.7 3.5 0.00 0.00 0.00 55 1017.8
20260902174158 92 110 2.6 4.3 0.00 0.00 0.00 57 1017.8
20260902173723 92 75 4.3 4.3 0.00 0.00 0.00 56 1017.8
20260902173222 92 151 0.9 1.7 0.00 0.00 0.00 56 1017.8
20260902173157 92 88 1.7 1.7 0.00 0.00 0.00 54 1017.8
20260902172723 92 88 2.6 2.6 0.00 0.00 0.00 58 1018.1
20260902172223 92 37 0.9 0.9 0.00 0.00 0.00 59 1018.1
20260902172156 92 14 0.9 0.9 0.00 0.00 0.00 57 1018.1
20260902171724 91 80 0.9 1.7 0.00 0.00 0.00 59 1018.1
20260902171223 91 0 1.7 1.7 0.00 0.00 0.00 62 1018.2
20260902171155 91 354 0.9 2.6 0.00 0.00 0.00 60 1018.2
20260902170722 92 30 0.9 0.9 0.00 0.00 0.00 59 1018.2
20260902170223 92 350 2.6 7.8 0.00 0.00 0.00 61 1018.2
20260902170156 92 16 2.6 3.5 0.00 0.00 0.00 61 1018.2
20260902165724 92 27 4.3 4.3 0.00 0.00 0.00 61 1018.3
20260902165222 92 11 2.6 2.6 0.00 0.00 0.00 63 1018.3
20260902165157 92 11 2.6 3.5 0.00 0.00 0.00 63 1018.3
20260902164723 92 52 0.9 1.7 0.00 0.00 0.00 63 1018.3
20260902164236 92 329 0.9 1.7 0.00 0.00 0.00 62 1018.3
20260902164223 92 6 0.9 1.7 0.00 0.00 0.00 60 1018.3
20260902164156 92 329 0.9 1.7 0.00 0.00 0.00 62 1018.3
20260902163724 92 230 0.0 1.7 0.00 0.00 0.00 64 1018.3
20260902163224 91 284 0.9 2.6 0.00 0.00 0.00 61 1018.3
20260902163156 92 275 2.6 2.6 0.00 0.00 0.00 64 1018.3
20260902162722 92 316 0.9 2.6 0.00 0.00 0.00 63 1018.6
20260902162223 92 116 0.0 0.0 0.00 0.00 0.00 59 1018.6
20260902162155 92 116 0.0 0.9 0.00 0.00 0.00 59 1018.6
20260902161724 92 31 0.0 0.9 0.00 0.00 0.00 57 1018.6
20260902161223 92 340 1.7 1.7 0.00 0.00 0.00 58 1018.7
20260902161156 92 343 0.9 1.7 0.00 0.00 0.00 60 1018.7
20260902160724 91 0 0.9 0.9 0.00 0.00 0.00 60 1018.7
20260902160222 91 186 0.0 1.7 0.00 0.00 0.00 61 1018.7
20260902160155 91 199 1.7 1.7 0.00 0.00 0.00 62 1018.7
20260902155723 91 330 0.9 0.9 0.00 0.00 0.00 62 1018.7
20260902155224 91 354 0.0 0.0 0.00 0.00 0.00 64 1018.7
20260902155156 90 354 0.0 0.9 0.00 0.00 0.00 64 1018.7
20260902154722 91 246 0.0 0.9 0.00 0.00 0.00 64 1018.7
20260902154222 91 301 2.6 2.6 0.00 0.00 0.00 65 1018.7
20260902154157 91 304 0.9 1.7 0.00 0.00 0.00 64 1018.7
20260902153723 91 313 1.7 1.7 0.00 0.00 0.00 65 1018.7
20260902153223 90 0 1.7 1.7 0.00 0.00 0.00 63 1018.7
20260902153156 90 55 0.9 0.9 0.00 0.00 0.00 63 1018.7
20260902152722 90 86 0.9 0.9 0.00 0.00 0.00 64 1018.8
20260902152223 90 79 0.9 1.7 0.00 0.00 0.00 64 1018.8
20260902152156 90 45 1.7 3.5 0.00 0.00 0.00 63 1018.8
20260902151723 90 0 0.0 1.7 0.00 0.00 0.00 64 1018.8
20260902151222 90 0 0.9 1.7 0.00 0.00 0.00 63 1018.6
20260902151157 90 0 0.9 2.6 0.00 0.00 0.00 63 1018.6
20260902150723 90 311 0.0 0.9 0.00 0.00 0.00 65 1018.6
20260902150224 89 353 0.0 1.7 0.00 0.00 0.00 65 1018.6
20260902150156 89 333 1.7 1.7 0.00 0.00 0.00 65 1018.6
20260902145723 89 357 0.9 0.9 0.00 0.00 0.00 65 1018.5
20260902145223 89 1 0.9 0.9 0.00 0.00 0.00 66 1018.5
20260902145155 89 3 0.0 0.9 0.00 0.00 0.00 65 1018.5
20260902144722 89 0 0.9 1.7 0.00 0.00 0.00 64 1018.5
20260902144222 89 0 1.7 1.7 0.00 0.00 0.00 66 1018.4
20260902144156 89 0 0.9 0.9 0.00 0.00 0.00 66 1018.4
20260902143722 88 4 1.7 1.7 0.00 0.00 0.00 69 1018.4
20260902143223 88 147 0.0 0.0 0.00 0.00 0.00 71 1018.4
20260902143200 88 147 0.0 0.0 0.00 0.00 0.00 71 1018.4
20260902142722 88 147 0.0 0.9 0.00 0.00 0.00 72 1018.4
20260902142222 88 109 0.0 0.9 0.00 0.00 0.00 74 1018.4
20260902142156 87 109 0.9 0.9 0.00 0.00 0.00 74 1018.4
20260902141723 87 109 0.0 0.9 0.00 0.00 0.00 74 1018.4
20260902141223 87 109 0.0 0.0 0.00 0.00 0.00 74 1018.5
20260902141157 87 109 0.0 0.0 0.00 0.00 0.00 74 1018.5
20260902140723 86 109 0.0 0.0 0.00 0.00 0.00 75 1018.5
20260902140222 86 109 0.0 0.9 0.00 0.00 0.00 75 1018.5
20260902140157 86 109 0.9 0.9 0.00 0.00 0.00 75 1018.5
20260902135723 85 109 1.7 1.7 0.00 0.00 0.00 76 1018.6
20260902135223 84 109 0.0 0.9 0.00 0.00 0.00 77 1018.6
20260902135157 84 109 0.9 0.9 0.00 0.00 0.00 78 1018.6
20260902134722 83 104 1.7 1.7 0.00 0.00 0.00 79 1018.6
20260902134223 83 114 0.0 0.0 0.00 0.00 0.00 80 1018.6
20260902134155 82 114 0.0 0.9 0.00 0.00 0.00 80 1018.6
20260902133722 82 114 0.9 0.9 0.00 0.00 0.00 81 1018.6
20260902133222 81 114 0.0 0.0 0.00 0.00 0.00 82 1018.6
20260902133157 81 114 0.0 0.0 0.00 0.00 0.00 82 1018.6
20260902132723 81 114 0.9 0.9 0.00 0.00 0.00 85 1018.5
20260902132223 80 114 0.0 0.0 0.00 0.00 0.00 86 1018.5
20260902132156 80 114 0.0 0.0 0.00 0.00 0.00 86 1018.5
20260902131722 80 114 0.0 0.0 0.00 0.00 0.00 86 1018.5
20260902131223 80 114 0.0 0.0 0.00 0.00 0.00 86 1018.6
20260902131155 79 114 0.0 0.0 0.00 0.00 0.00 86 1018.6
20260902130722 79 114 0.0 0.0 0.00 0.00 0.00 87 1018.6
20260902130223 78 114 0.0 0.0 0.00 0.00 0.00 88 1018.6
20260902130155 78 114 0.0 0.0 0.00 0.00 0.00 88 1018.6
20260902125724 78 114 0.0 0.0 0.00 0.00 0.00 88 1018.5
20260902125222 78 114 0.0 0.0 0.00 0.00 0.00 89 1018.5
20260902125157 77 114 0.0 0.0 0.00 0.00 0.00 88 1018.5
20260902124723 77 114 0.0 0.0 0.00 0.00 0.00 89 1018.5
20260902124222 77 114 0.0 0.0 0.00 0.00 0.00 89 1018.5
20260902124155 77 114 0.0 0.0 0.00 0.00 0.00 89 1018.5
20260902123723 76 114 0.0 0.0 0.00 0.00 0.00 90 1018.5
20260902123224 76 114 0.0 0.0 0.00 0.00 0.00 90 1018.5
20260902123157 76 114 0.0 0.0 0.00 0.00 0.00 90 1018.5
20260902122722 76 114 0.0 0.0 0.00 0.00 0.00 90 1018.3
20260902122224 76 114 0.0 0.0 0.00 0.00 0.00 90 1018.3
20260902122157 76 114 0.0 0.0 0.00 0.00 0.00 90 1018.3
20260902121722 76 114 0.0 0.0 0.00 0.00 0.00 90 1018.3
20260902121223 76 114 0.0 0.0 0.00 0.00 0.00 90 1018.2
20260902121156 76 114 0.0 0.0 0.00 0.00 0.00 90 1018.2
20260902120724 76 114 0.0 0.0 0.00 0.00 0.00 89 1018.2
20260902120236 76 114 0.0 0.0 0.00 0.00 0.00 88 1018.2
20260902120222 76 114 0.0 0.0 0.00 0.00 0.00 88 1018.2
20260902120155 76 114 0.0 0.0 0.00 0.00 0.00 88 1018.2
20260902115722 76 114 0.0 0.0 0.00 0.00 0.00 88 1018.1
20260902115224 76 114 0.0 0.0 0.00 0.00 0.00 88 1018.1
20260902115158 76 114 0.0 0.0 0.00 0.00 0.00 88 1018.1
20260902114722 76 114 0.0 0.0 0.00 0.00 0.00 87 1018.1
20260902114223 76 114 0.0 0.0 0.00 0.00 0.00 87 1018.0
20260902114156 76 114 0.0 0.0 0.00 0.00 0.00 87 1018.0
20260902113723 76 114 0.0 0.0 0.00 0.00 0.00 87 1018.0
20260902113223 76 114 0.0 0.0 0.00 0.00 0.00 87 1018.0
20260902113156 76 114 0.0 0.0 0.00 0.00 0.00 87 1018.0
20260902112722 76 114 0.0 0.0 0.00 0.00 0.00 87 1017.8
20260902112222 76 114 0.0 0.0 0.00 0.00 0.00 86 1017.8
20260902112155 76 114 0.0 0.0 0.00 0.00 0.00 86 1017.8
20260902111723 76 113 0.0 0.0 0.00 0.00 0.00 86 1017.8
20260902111222 76 114 0.0 0.0 0.00 0.00 0.00 86 1017.6
20260902111157 76 114 0.0 0.0 0.00 0.00 0.00 86 1017.6
20260902110722 76 113 0.0 0.0 0.00 0.00 0.00 86 1017.6
20260902110247 76 114 0.0 0.0 0.00 0.00 0.00 86 1017.6
20260902110223 76 114 0.0 0.0 0.00 0.00 0.00 86 1017.6
20260902110156 76 114 0.0 0.0 0.00 0.00 0.00 86 1017.6
20260902105722 76 114 0.0 0.0 0.00 0.00 0.00 85 1017.5
20260902105222 76 114 0.0 0.9 0.00 0.00 0.00 85 1017.5
20260902105155 76 114 0.9 1.7 0.00 0.00 0.00 85 1017.5
20260902104723 76 114 0.0 0.9 0.00 0.00 0.00 85 1017.5
20260902104222 76 119 0.0 0.0 0.00 0.00 0.00 84 1017.4
20260902104158 76 119 0.0 0.0 0.00 0.00 0.00 84 1017.4
20260902103722 76 119 0.0 0.9 0.00 0.00 0.00 84 1017.4
20260902103223 76 97 0.9 0.9 0.00 0.00 0.00 84 1017.4
20260902103156 76 107 0.9 1.7 0.00 0.00 0.00 84 1017.4
20260902102722 76 95 0.9 1.7 0.00 0.00 0.00 84 1017.4
20260902102222 76 89 0.9 1.7 0.00 0.00 0.00 84 1017.4
20260902102157 76 99 0.9 0.9 0.00 0.00 0.00 84 1017.4
20260902101723 76 89 1.7 1.7 0.00 0.00 0.00 83 1017.4
20260902101222 76 90 1.7 1.7 0.00 0.00 0.00 83 1017.3
20260902101158 76 90 1.7 1.7 0.00 0.00 0.00 83 1017.3
20260902100722 76 88 0.9 1.7 0.00 0.00 0.00 83 1017.3
20260902100223 76 100 1.7 1.7 0.00 0.00 0.00 83 1017.3
20260902100156 76 109 0.0 1.7 0.00 0.00 0.00 83 1017.3
20260902095722 76 90 1.7 2.6 0.00 0.00 0.00 83 1017.1
20260902095412 76 96 1.7 1.7 0.00 0.00 0.00 82 1017.1
20260902095223 76 97 1.7 1.7 0.00 0.00 0.00 82 1017.1
20260902095158 76 96 1.7 1.7 0.00 0.00 0.00 82 1017.1
20260902094722 76 97 0.9 1.7 0.00 0.00 0.00 82 1017.1
20260902094223 76 78 0.0 0.9 0.00 0.00 0.00 82 1016.9
20260902094156 76 78 0.9 1.7 0.00 0.00 0.00 82 1016.9
20260902093723 77 104 0.0 0.0 0.00 0.00 0.00 82 1016.9
20260902093222 77 89 0.9 1.7 0.00 0.00 0.00 81 1016.9
20260902093157 77 86 1.7 1.7 0.00 0.00 0.00 81 1016.9
20260902092723 77 83 1.7 1.7 0.00 0.00 0.00 81 1016.9
20260902092234 77 110 2.6 2.6 0.00 0.00 0.00 81 1016.9
20260902092223 77 113 1.7 2.6 0.00 0.00 0.00 81 1016.9
20260902092157 77 110 2.6 2.6 0.00 0.00 0.00 81 1016.9
20260902091723 77 120 0.9 1.7 0.00 0.00 0.00 80 1016.9
20260902091222 77 136 0.0 0.0 0.00 0.00 0.00 78 1016.7
20260902091157 77 136 0.0 0.0 0.00 0.00 0.00 78 1016.7
20260902090722 77 136 0.9 0.9 0.00 0.00 0.00 78 1016.7
20260902090223 78 136 0.0 0.0 0.00 0.00 0.00 78 1016.7
20260902090156 78 136 0.0 0.0 0.00 0.00 0.00 78 1016.7
20260902085722 78 136 0.0 0.0 0.00 0.00 0.00 77 1016.5
20260902085222 78 116 0.9 0.9 0.00 0.00 0.00 77 1016.5
20260902085155 78 116 0.9 0.9 0.00 0.00 0.00 77 1016.5
20260902084722 78 97 0.0 0.0 0.00 0.00 0.00 76 1016.5
20260902084223 78 103 0.9 1.7 0.00 0.00 0.00 76 1016.3
20260902084156 78 104 0.9 1.7 0.00 0.00 0.00 76 1016.3
20260902083723 78 90 0.9 1.7 0.00 0.00 0.00 76 1016.3
20260902083222 78 92 0.9 1.7 0.00 0.00 0.00 76 1016.3
20260902083157 78 100 1.7 1.7 0.00 0.00 0.00 76 1016.3
20260902082723 78 100 1.7 1.7 0.00 0.00 0.00 76 1016.3
20260902082223 78 96 0.9 0.9 0.00 0.00 0.00 77 1016.3
20260902082157 78 103 0.9 1.7 0.00 0.00 0.00 77 1016.3
20260902081722 78 97 0.0 0.9 0.00 0.00 0.00 77 1016.3
20260902081223 78 99 1.7 1.7 0.00 0.00 0.00 78 1016.2
20260902081156 78 93 0.0 1.7 0.00 0.00 0.00 78 1016.2
20260902080723 78 107 2.6 2.6 0.00 0.00 0.00 78 1016.2
20260902080222 78 82 0.9 1.7 0.00 0.00 0.00 78 1016.2
20260902080157 78 82 0.9 1.7 0.00 0.00 0.00 78 1016.2
20260902075722 78 88 1.7 1.7 0.00 0.00 0.00 78 1016.2
20260902075223 78 89 0.9 2.6 0.00 0.00 0.00 78 1016.2
20260902075157 78 95 1.7 1.7 0.00 0.00 0.00 78 1016.2
20260902074722 78 138 0.0 0.0 0.00 0.00 0.00 78 1016.2
20260902074223 79 138 0.0 0.0 0.00 0.00 0.00 77 1016.2
20260902074156 79 138 0.0 0.0 0.00 0.00 0.00 77 1016.2
20260902073723 79 138 0.0 0.9 0.00 0.00 0.00 77 1016.2
20260902073222 79 119 0.0 1.7 0.00 0.00 0.00 76 1016.2
20260902073157 79 119 0.9 1.7 0.00 0.00 0.00 76 1016.2
20260902072723 79 124 1.7 1.7 0.00 0.00 0.00 75 1016.1
20260902072223 79 120 1.7 1.7 0.00 0.00 0.00 75 1016.1
20260902072156 79 120 1.7 1.7 0.00 0.00 0.00 75 1016.1
20260902071722 79 112 0.9 1.7 0.00 0.00 0.00 75 1016.1
20260902071258 80 103 0.0 1.7 0.00 0.00 0.00 74 1016.1
20260902071223 80 95 1.7 1.7 0.00 0.00 0.00 75 1016.1
20260902071156 80 103 0.0 1.7 0.00 0.00 0.00 74 1016.1
20260902070723 80 99 1.7 1.7 0.00 0.00 0.00 74 1016.1
20260902070412 80 103 1.7 1.7 0.00 0.00 0.00 74 1016.1
20260902070222 80 93 0.9 1.7 0.00 0.00 0.00 74 1016.1
20260902070157 80 103 1.7 1.7 0.00 0.00 0.00 74 1016.1
20260902065723 80 106 0.9 1.7 0.00 0.00 0.00 74 1016.2
20260902065223 80 99 0.9 1.7 0.00 0.00 0.00 74 1016.2
20260902065156 80 99 1.7 1.7 0.00 0.00 0.00 74 1016.2
20260902064722 80 86 1.7 1.7 0.00 0.00 0.00 73 1016.2
20260902064223 80 103 0.9 1.7 0.00 0.00 0.00 73 1016.2
20260902064157 80 103 1.7 1.7 0.00 0.00 0.00 73 1016.2
20260902063723 80 103 0.9 1.7 0.00 0.00 0.00 73 1016.2
20260902063223 80 96 0.0 0.9 0.00 0.00 0.00 73 1016.2
20260902063156 80 97 1.7 1.7 0.00 0.00 0.00 73 1016.2
20260902062724 80 109 0.9 2.6 0.00 0.00 0.00 72 1016.3
20260902062222 80 93 0.9 2.6 0.00 0.00 0.00 72 1016.3
20260902062157 80 90 2.6 2.6 0.00 0.00 0.00 72 1016.3
20260902061723 80 76 1.7 1.7 0.00 0.00 0.00 72 1016.3
20260902061223 80 62 0.0 2.6 0.00 0.00 0.00 73 1016.4
20260902061159 80 59 2.6 2.6 0.00 0.00 0.00 73 1016.4
20260902060722 80 59 2.6 2.6 0.00 0.00 0.00 74 1016.4